Regional Weather Roundup
Issued by NWS Sterling, VA

Home | Current Version | Previous Version | Graphics & Text | Print | Product List | Glossary On
Versions: 1 2 3 4 5 6 7 8 9 10 11 12 13 14 15 16 17 18 19 20 21 22 23 24 25 26 27 28 29 30 31 32 33 34 35 36 37 38 39 40 41 42 43 44 45 46 47 48 49 50
000
ASUS41 KLWX 290011
RWRLWX

REGIONAL WEATHER ROUNDUP
NATIONAL WEATHER SERVICE BALTIMORE MD/WASHINGTON DC
800 PM EDT TUE MAR 28 2017

Note: "FAIR" indicates few or no clouds below 12,000 feet
with no significant weather and/or obstructions to visibility.
 TC=TEMPERATURE CELSIUS

 * =Non NWS site. Station does not report precipitation (e.g. rain,
    snow, etc.), thunder, or fog.

DCZ001-MDZ009-015-VAZ040>042-051-053>054-290100-
WASHINGTON METRO

CITY           SKY/WX    TMP DP  RH WIND       PRES   REMARKS
WASHINGTON NAT MOCLDY    69  54  58 NW9       29.88R
DULLES         MOCLDY    63  57  81 W3        29.88R
ANDREWS AFB    CLOUDY    66  53  62 NW7       29.86R
FT BELVOIR     PTCLDY    66  55  66 NW8       29.88R
QUANTICO       MOCLDY    63  58  83 SW3       29.89R
COLLEGE PARK*  MOCLDY    65  54  65 N7        29.88R
LEESBURG*      CLOUDY    64  63  94 N3        29.90R
MANASSAS*        N/A    N/A N/A N/A NW5       29.89R

$$

MDZ006>007-011-014-290100-
BALTIMORE METRO

CITY           SKY/WX    TMP DP  RH WIND       PRES   REMARKS
BWI AIRPORT    MOCLDY    65  56  72 N3        29.86R
MD SCIENCE CTR   N/A     65  54  67 MISG      29.88R
MARTIN STATE   MOCLDY    63  57  82 NW9       29.89R
ANNAPOLIS      CLOUDY    61  55  81 CALM      29.87R
FORT MEADE*    CLOUDY    63  54  72 CALM      29.90R

$$

MDZ012-015-019>023-290100-
MARYLAND EASTERN SHORE

CITY           SKY/WX    TMP DP  RH WIND       PRES   REMARKS
OCEAN CITY     CLOUDY    56  52  86 CALM      29.85R
SALISBURY      MOCLDY    65  59  81 W13       29.85R
BAY BRIDGE AP* CLOUDY    61  55  82 N6        29.88R
CAMBRIDGE*     PTCLDY    63  59  88 CALM      29.87R
EASTON*        MOCLDY    64  55  72 CALM      29.90R

$$

MDZ017>025-290100-
SOUTHERN MARYLAND

CITY           SKY/WX    TMP DP  RH WIND       PRES   REMARKS
PATUXENT RIVER MOCLDY    62  61  96 CALM      29.86R
ST INIGOES     MOCLDY    61  56  83 CALM      29.86R
LEONARDTOWN*   MOCLDY    63  59  88 CALM      29.89R

$$

MDZ003>005-290100-
NORTH CENTRAL MARYLAND

CITY           SKY/WX    TMP DP  RH WIND       PRES   REMARKS
FREDERICK*     MOCLDY    63  61  94 CALM      29.92R
HAGERSTOWN APT CLOUDY    60  58  92 NW5       29.90R
WESTMINSTER*   CLOUDY    59  55  88 N5        29.90S

$$

MDZ501>502-290100-
WESTERN MARYLAND

CITY           SKY/WX    TMP DP  RH WIND       PRES   REMARKS
OAKLAND*       FOG       48  48 100 NW6       29.99R VSB<1/4
CUMBERLAND*    CLOUDY    63  54  72 NW10      29.98R

$$

VAZ025>031-290100-
SHENANDOAH VALLEY

CITY           SKY/WX    TMP DP  RH WIND       PRES   REMARKS
WINCHESTER*    CLOUDY    61  54  77 NW6       29.91R
FRONT ROYAL*   CLOUDY    61  57  88 CALM      29.90R
LURAY*         MOCLDY    63  57  82 NE5       29.91R
NEW MARKET*    CLOUDY    61  53  76 CALM      29.89S
STAUNTON*      CLOUDY    62  55  78 CALM      29.93R
WAYNESBORO*    CLOUDY    64  50  61 CALM      29.92R

$$

WVZ021-048>050-054>055-290100-
EASTERN WEST VIRGINIA PANHANDLE

CITY           SKY/WX    TMP DP  RH WIND       PRES   REMARKS
MARTINSBURG    CLOUDY    60  58  92 N3        29.90S
PETERSBURG*    CLOUDY    65  53  63 NW3       29.94R

$$

VAZ036>039-050-290100-
CENTRAL FOOTHILLS

CITY           SKY/WX    TMP DP  RH WIND       PRES   REMARKS
CHARLOTTESVILL PTCLDY    63  57  81 CALM      29.89R
CULPEPER*      CLOUDY    64  61  89 NW6       29.91R
ORANGE*        CLOUDY    59  59 100 CALM      29.91R
GORDONSVILLE*  MOCLDY    60  60 100 CALM      29.89R
WARRENTON*     LGT RAIN  63  59  85 W6        29.89R

$$

VAZ055>057-290100-
NORTH AND CENTRAL PIEDMONT

CITY           SKY/WX    TMP DP  RH WIND       PRES   REMARKS
FREDERICKSBRG* CLOUDY    68  59  72 W3        29.88R
STAFFORD*      CLOUDY    63  60  90 CALM      29.92R

$$

NCZ024-NYZ072-PAZ021-071-VAZ022-071-290100-
OTHER REGIONAL OBSERVATIONS

CITY           SKY/WX    TMP DP  RH WIND       PRES   REMARKS
NEW YORK CITY  RAIN      41  40  96 NE10      29.94R FOG
PHILADELPHIA   CLOUDY    50  47  89 N9        29.90R
PITTSBURGH     CLOUDY    52  46  80 NW17      30.03R
ROANOKE        MOCLDY    66  49  54 NW15      29.95R
RICHMOND       MOCLDY    63  58  83 CALM      29.88R
RALEIGH        PTCLDY    70  53  54 CALM      29.90R

$$

ANZ530>537-290100-
MARINE OBSERVATIONS

STATION/POSITION TIME  TEMP    WIND        PRES
                       AIR SEA DIR/SP/G
                 (UTC) (F)     (DEG/KT/KT) (MB)
THOMAS PT LIGHT  0000   59 47   20/  8/  8   N/A
BALT KEY BRIDGE  2336   59     170/  3/  5 1011.6R
COVE POINT       2336   60     200/  6/  6 1011.9R
LEWISETTA        2336   61 53  250/  2/  2 1011.1R
SOLOMONS ISLAND  2348           60/  2/  3   N/A
PINEY POINT      2348          140/  5/  5   N/A

$$




USA.gov is the U.S. government's official web portal to all federal, state and local government web resources and services.